Погода в Русте

Германия     48°16′14″N   7°43′42″E
темп.,
°C
ветер,
м/с
пор.,
м/с
влажн.,
%
обл.,
%
осадки,
мм/ч
давл.,
гПа
погр.,
м
13 мая, чт
чт1323:00+9вюв118479 0.0 101111
02:00+8ююв118799 0.0 101110
05:00+6ююв228957 0.0 101015
08:00+9ююв238389 0.0 1009157
11:00+14ююз787436 0.2 1009880
14:00+11зюз4684100 1.3 1010762
17:00+14юв126785 0.1 1009566
20:00+12ю2376100 0.3 100851
14 мая, пт
пт1423:00+8ю228873 0.0 100935
02:00+6ю239232 0.0 101044
05:00+5ю22935 0.0 101034
08:00+8ююз35855 0.0 1010236
11:00+13ююз44695 0.0 1010742
14:00+15зюз337061 2.6 1010993
17:00+15юз347069 4.3 10091026
20:00+12ююз3480100 6.9 101070
15 мая, сб
сб1523:00+8ю5109418 0.6 1012229
02:00+7ю6129132 0.6 1011315
05:00+8ююз5119014 0.0 1011302
08:00+9ююз498898 0.0 1011398
11:00+12ююз6881100 0.6 1010881
14:00+10ююз71188100 2.6 10091085
17:00+10ююз6109079 1.0 1009605
20:00+10ююз61189100 2.3 1009506
16 мая, вс
вс1623:00+9ю7129299 0.6 1010363
02:00+9ююз61093100 0.8 1011343
05:00+9ююз51093100 0.3 1010338
08:00+9ю489240 0.3 1010361
11:00+14ююз687266 0.0 10091245
14:00+11ююз5794100 2.4 1009353
17:00+13ююз468530 0.5 1008601
20:00+13ю5989100 0.9 1007356
17 мая, пн
пн1723:00+11ююз51095100 2.1 1007244
02:00+9юз599216 3.7 1009201
05:00+7ююз5109210 0.7 1011209
08:00+9ююз711897 0.7 1012838
11:00+11зюз81271100 0.1 10121513
14:00+11ююз7108146 0.7 10131205
17:00+14юз7117264 0.8 10111674
20:00+11юз598362 1.9 1012281